JOTAC Weather Reports


Display with metric or nautical units.
time (UTC)temp
F
wind
direction
speed
MPH
gust
MPH
rain 1hr
in
rain 24hr
in
rain mn
in
humidity
%
barometer
mb
20260508060031 46 98 5.0 8.0 0.00 0.07 0.00 85 1009.7
20260508054529 46 90 3.0 8.0 0.00 0.08 0.00 86 1009.8
20260508053028 45 94 4.0 9.0 0.00 0.08 0.00 86 1009.6
20260508051530 45 84 5.0 8.0 0.00 0.08 0.00 86 1009.4
20260508050030 45 104 4.0 7.0 0.00 0.08 0.00 86 1009.4
20260508044530 45 105 3.0 7.0 0.00 0.08 0.00 85 1009.8
20260508043033 46 119 4.0 8.0 0.00 0.08 0.00 85 1009.6
20260508041529 46 81 3.0 7.0 0.00 0.08 0.00 85 1009.5
20260508040031 45 87 4.0 9.0 0.00 0.08 0.00 85 1009.5
20260508034530 46 108 6.0 9.0 0.00 0.08 0.00 85 1009.4
20260508033030 46 92 4.0 7.0 0.00 0.08 0.00 85 1009.6
20260508031530 46 68 3.0 7.0 0.00 0.08 0.00 85 1009.8
20260508030029 46 91 4.0 6.0 0.00 0.08 0.00 85 1010.1
20260508024531 46 90 3.0 7.0 0.00 0.08 0.00 84 1010.0
20260508023035 47 98 3.0 6.0 0.00 0.08 0.00 85 1010.2
20260508021531 47 96 4.0 7.0 0.00 0.08 0.00 85 1010.2
20260508020031 47 79 4.0 7.0 0.00 0.08 0.00 85 1010.3
20260508014534 47 94 3.0 7.0 0.00 0.08 0.00 84 1010.6
20260508013030 47 84 3.0 6.0 0.00 0.08 0.00 84 1010.7
20260508011538 47 92 2.0 6.0 0.00 0.08 0.00 84 1011.1
20260508010034 47 84 3.0 6.0 0.00 0.08 0.00 84 1011.2
20260508004545 47 103 2.0 4.0 0.00 0.08 0.00 84 1011.6
20260508003036 47 92 0.0 5.0 0.00 0.08 0.00 83 1011.6
20260508001533 47 78 1.0 3.0 0.00 0.08 0.00 83 1011.6
20260508000031 47 82 2.0 4.0 0.00 0.08 0.00 83 1011.6
20260507234532 47 84 3.0 6.0 0.00 0.08 0.00 83 1011.4
20260507233032 47 101 4.0 7.0 0.00 0.08 0.00 83 1011.3
20260507231530 47 74 3.0 6.0 0.00 0.08 0.00 82 1011.4
20260507230031 47 107 3.0 7.0 0.00 0.08 0.00 82 1011.6
20260507224530 48 95 3.0 4.0 0.00 0.08 0.00 82 1011.6
20260507223030 48 92 2.0 4.0 0.00 0.08 0.00 81 1011.7
20260507221534 48 90 2.0 4.0 0.00 0.08 0.00 81 1011.8
20260507220032 48 86 3.0 6.0 0.00 0.08 0.00 80 1011.6
20260507214530 49 86 3.0 7.0 0.00 0.08 0.08 79 1011.6
20260507213033 49 65 4.0 8.0 0.00 0.08 0.08 77 1011.5
20260507211528 49 88 5.0 9.0 0.00 0.08 0.08 77 1011.5
20260507210032 49 82 3.0 10.0 0.00 0.08 0.08 78 1011.2
20260507204530 49 80 5.0 9.0 0.00 0.08 0.08 77 1011.1
20260507203030 49 109 5.0 8.0 0.00 0.08 0.08 77 1010.9
20260507201529 49 81 4.0 7.0 0.00 0.08 0.08 77 1010.8
20260507200036 50 84 5.0 8.0 0.00 0.08 0.08 76 1010.6
20260507194532 51 101 4.0 8.0 0.00 0.08 0.08 76 1010.4
20260507193032 51 94 4.0 9.0 0.00 0.08 0.08 75 1010.3
20260507191532 52 113 6.0 11.0 0.00 0.08 0.08 74 1010.2
20260507190037 53 98 6.0 11.0 0.00 0.08 0.08 74 1010.3
20260507184537 53 108 8.0 11.0 0.00 0.08 0.08 73 1010.0
20260507183037 54 107 6.0 11.0 0.02 0.08 0.08 71 1009.7
20260507181532 55 0 0.0 4.0 0.03 0.08 0.08 71 1009.4
20260507180032 54 348 3.0 6.0 0.05 0.08 0.08 72 1009.3
20260507174536 51 276 3.0 11.0 0.05 0.07 0.07 82 1009.5
20260507173033 51 24 4.0 8.0 0.04 0.06 0.06 81 1009.7
20260507171534 51 329 2.0 10.0 0.03 0.04 0.04 77 1009.9
20260507170035 52 0 1.0 15.0 0.01 0.03 0.03 68 1010.1
20260507164530 53 257 3.0 11.0 0.00 0.02 0.02 71 1009.8
20260507163033 56 254 7.0 14.0 0.00 0.01 0.01 61 1009.6
20260507161531 58 261 7.0 13.0 0.00 0.01 0.01 51 1009.3
20260507160034 60 298 4.0 14.0 0.00 0.01 0.01 51 1009.1
20260507154533 62 205 3.0 8.0 0.00 0.01 0.01 42 1009.1
20260507153030 64 214 3.0 9.0 0.00 0.01 0.01 38 1009.0
20260507151530 65 184 3.0 12.0 0.00 0.01 0.01 40 1009.1
20260507150032 63 246 4.0 10.0 0.00 0.01 0.01 41 1009.1
20260507144529 65 165 4.0 11.0 0.00 0.01 0.01 42 1009.2
20260507143031 63 202 4.0 11.0 0.00 0.01 0.01 44 1009.3
20260507141530 64 148 2.0 10.0 0.00 0.01 0.01 45 1009.4
20260507140028 63 256 3.0 11.0 0.00 0.01 0.01 43 1009.5
20260507134530 62 201 2.0 8.0 0.00 0.01 0.01 49 1009.6
20260507133030 61 179 2.0 8.0 0.00 0.01 0.01 46 1009.9
20260507131535 61 182 1.0 8.0 0.00 0.01 0.01 50 1010.0
20260507130030 63 196 2.0 7.0 0.00 0.01 0.01 50 1010.2
20260507124536 62 163 1.0 8.0 0.00 0.01 0.01 50 1010.3
20260507123033 62 196 2.0 7.0 0.00 0.01 0.01 51 1010.6
20260507121540 61 175 3.0 12.0 0.00 0.01 0.01 48 1010.6
20260507120030 62 254 4.0 13.0 0.00 0.01 0.01 52 1010.8
20260507114530 61 134 4.0 12.0 0.00 0.01 0.01 52 1011.0
20260507113035 61 154 4.0 11.0 0.00 0.01 0.01 51 1011.2
20260507111529 61 123 2.0 10.0 0.00 0.01 0.01 54 1011.1
20260507110031 60 78 4.0 9.0 0.00 0.01 0.01 56 1011.1
20260507104531 60 140 4.0 9.0 0.00 0.01 0.01 57 1011.2
20260507103032 60 125 3.0 8.0 0.00 0.01 0.01 60 1011.4
20260507101537 59 126 5.0 11.0 0.00 0.01 0.01 59 1011.4
20260507100034 58 105 4.0 8.0 0.00 0.01 0.01 60 1011.4
20260507094530 58 138 4.0 9.0 0.00 0.01 0.01 59 1011.5
20260507093037 57 121 4.0 8.0 0.00 0.01 0.01 63 1011.6
20260507091532 57 152 3.0 10.0 0.00 0.01 0.01 64 1011.6
20260507090032 56 104 3.0 10.0 0.00 0.01 0.01 66 1011.5
20260507084532 55 111 7.0 11.0 0.00 0.01 0.01 68 1011.5
20260507083038 54 114 6.0 11.0 0.00 0.01 0.01 69 1011.5
20260507081531 53 100 5.0 9.0 0.00 0.01 0.01 70 1011.5
20260507080030 52 58 6.0 10.0 0.00 0.01 0.01 71 1011.5
20260507074532 52 80 5.0 9.0 0.00 0.01 0.01 71 1011.4
20260507073030 51 108 4.0 9.0 0.00 0.01 0.01 73 1011.4
20260507071551 49 107 4.0 9.0 0.00 0.01 0.01 73 1011.5
20260507070031 50 96 3.0 8.0 0.00 0.01 0.01 75 1011.6
20260507064529 47 91 2.0 8.0 0.00 0.01 0.01 79 1011.7
20260507063032 46 88 3.0 8.0 0.00 0.00 0.00 81 1011.6
20260507061535 45 100 5.0 10.0 0.00 0.00 0.00 82 1011.5